User: anonymous   Login
Location: Caltech
(34.1382°N, 118.1253°W)
Time: 07:36:54
(UTC-08:00)
Language:

PAYLOAD A - Orbit

View from above orbital plane
View from above orbital plane
View from above satellite
View from above satellite

Ground track
Ground track

The orbit data is extracted from the following two-line orbital elements,

1 27840U 03031A   16037.10490720  .00000017  00000-0  18534-4 0  9991
2 27840  98.1993  50.4016 0098377 176.9558 229.7592 14.38842164661834
Epoch (UTC): 06 February 2016 02:31:03
Eccentricity: 0.0098377
inclination: 98.1993°
perigee height: 692 km
apogee height: 832 km
right ascension of ascending node: 50.4016°
argument of perigee: 176.9558°
revolutions per day: 14.38842164
mean anomaly at epoch: 229.7592°
orbit number at epoch: 66183

The dashed part of the orbit path shows where the satellite is in the earth's shadow,  

DLR